Весенний

Россия / Чукотский автономный округ     66°27′11″N   164°34′36″E
темп.,
°C
ветер,
м/с
пор.,
м/с
влажн.,
%
обл.,
%
осадки,
мм/ч
давл.,
гПа
погр.,
м
26 октября, вт
вт2600:00−24юв219190 0.0 10089
03:00−23юв1190100 0.0 10079
06:00−21ююв1190100 0.0 10079
09:00−21з1194100 0.0 10089
12:00−18зсз1194100 0.1 1009115
15:00−18зсз129697 0.2 1010167
18:00−21зюз1110091 0.3 10129
21:00−23юз21100100 0.1 10149
27 октября, ср
ср2700:00−26юз22100100 0.1 10179
03:00−26ююз22100100 0.0 10189
06:00−26ююз22100100 0.1 10199
09:00−26ююз22100100 0.0 10209
12:00−24ююз229985 0.1 102112
15:00−25ю219935 0.0 10229
18:00−28ю229946 0.0 10239
21:00−29ю229964 0.0 10249
28 октября, чт
чт2800:00−29ююв229936 0.0 10249
03:00−29ююв32995 0.0 102410
06:00−30ююв329936 0.0 102410
09:00−30юв32995 0.0 102311
12:00−24юв22946 0.0 102120
15:00−25юв229350 0.0 102011
18:00−28юв329123 0.0 102011
21:00−28юв329056 0.0 101911
29 октября, пт
пт2900:00−27юв338710 0.0 101712
03:00−27юв328584 0.0 101612
06:00−27юв33855 0.0 101512
09:00−26юв32865 0.0 101412
12:00−22юв228568 0.0 101223
15:00−21юв2288100 0.0 101113
18:00−18юв2287100 0.0 101030
21:00−19юв2290100 0.0 101018
30 октября, сб
сб3000:00−20юв229295 0.0 101010
03:00−20ююв2196100 0.0 101012
06:00−16сз1197100 0.5 101034
09:00−18з119999 0.3 10119
12:00−17сз119698 0.4 101261
15:00−17зсз1198100 0.1 101217
18:00−20з1110094 0.3 10149
21:00−21з1110093 0.1 10159